• In Deutschland
  • Länderverzeichnis
  • Für 7 Tage
  • Wassertemperatur
  • Satellitenkarten
  • Wetterkarte
  • Widgets
  • user-avatar
    Anmelden

    Stündliche Wetter Landsberg am Lech

    Heute, 20 Oktober, Freitag

    Zeit Temperatur Niederschläge Wind Luftdruck Luftfeuchtigkeit
    00:00 +10°C° 0 mm 2 m/S 706 mmHg 69%
    01:00 +10°C° 0 mm 2 m/S 706 mmHg 62%
    02:00 +9°C° 0 mm 2 m/S 706 mmHg 63%
    03:00 +9°C° 0 mm 2 m/S 706 mmHg 63%
    04:00 +9°C° 0 mm 2 m/S 706 mmHg 63%
    05:00 +9°C° 0 mm 2 m/S 707 mmHg 65%
    06:00 +9°C° 0 mm 2 m/S 707 mmHg 67%
    07:00 +9°C° 0 mm 2 m/S 707 mmHg 70%
    08:00 +12°C° 0 mm 2 m/S 708 mmHg 66%
    09:00 +14°C° 0 mm 3 m/S 708 mmHg 63%
    10:00 +17°C° 0 mm 3 m/S 708 mmHg 60%
    11:00 +18°C° 0 mm 3 m/S 709 mmHg 58%
    12:00 +19°C° 0 mm 3 m/S 709 mmHg 56%
    13:00 +20°C° 0 mm 2 m/S 709 mmHg 53%
    14:00 +19°C° 0 mm 2 m/S 709 mmHg 58%
    15:00 +18°C° 0 mm 2 m/S 709 mmHg 63%
    16:00 +19°C° 0 mm 1 m/S 709 mmHg 68%
    17:00 +16°C° 0 mm 1 m/S 709 mmHg 71%
    18:00 +15°C° 0 mm 2 m/S 709 mmHg 74%
    19:00 +13°C° 0 mm 2 m/S 709 mmHg 78%
    20:00 +13°C° 0 mm 2 m/S 709 mmHg 78%
    21:00 +13°C° 0 mm 2 m/S 709 mmHg 78%
    22:00 +13°C° 0 mm 2 m/S 710 mmHg 79%
    23:00 +13°C° 0 mm 2 m/S 710 mmHg 79%

    Morgen, 21 Oktober, Samstag

    Zeit Temperatur Niederschläge Wind Luftdruck Luftfeuchtigkeit
    00:00 +13°C° 0 mm 2 m/S 710 mmHg 79%
    01:00 +12°C° 0 mm 2 m/S 710 mmHg 78%
    02:00 +12°C° 0 mm 2 m/S 709 mmHg 78%
    03:00 +12°C° 0 mm 2 m/S 709 mmHg 77%
    04:00 +12°C° 0 mm 2 m/S 709 mmHg 76%
    05:00 +12°C° 0 mm 2 m/S 709 mmHg 75%
    06:00 +12°C° 0 mm 2 m/S 709 mmHg 75%
    07:00 +10°C° 0 mm 2 m/S 709 mmHg 74%
    08:00 +13°C° 0 mm 2 m/S 709 mmHg 71%
    09:00 +15°C° 0 mm 2 m/S 709 mmHg 68%
    10:00 +16°C° 0 mm 2 m/S 710 mmHg 65%
    11:00 +18°C° 0 mm 3 m/S 709 mmHg 62%
    12:00 +19°C° 0 mm 3 m/S 709 mmHg 58%
    13:00 +20°C° 0 mm 3 m/S 709 mmHg 55%
    14:00 +19°C° 0 mm 3 m/S 709 mmHg 60%
    15:00 +18°C° 0 mm 2 m/S 708 mmHg 65%
    16:00 +18°C° 0 mm 2 m/S 708 mmHg 69%
    17:00 +16°C° 0 mm 2 m/S 708 mmHg 72%
    18:00 +15°C° 0 mm 2 m/S 708 mmHg 75%
    19:00 +13°C° 0 mm 2 m/S 708 mmHg 78%
    20:00 +13°C° 0,1 mm 2 m/S 708 mmHg 80%
    21:00 +12°C° 0,1 mm 2 m/S 709 mmHg 83%
    22:00 +11°C° 0,1 mm 3 m/S 709 mmHg 85%
    23:00 +10°C° 0,8 mm 3 m/S 709 mmHg 87%

    übermorgen, 22 Oktober, Sonntag

    Zeit Temperatur Niederschläge Wind Luftdruck Luftfeuchtigkeit
    00:00 +10°C° 0,8 mm 4 m/S 709 mmHg 90%
    01:00 +8°C° 0,8 mm 4 m/S 709 mmHg 93%
    02:00 +8°C° 0,9 mm 4 m/S 709 mmHg 93%
    03:00 +7°C° 0,9 mm 4 m/S 709 mmHg 94%
    04:00 +8°C° 0,9 mm 3 m/S 709 mmHg 94%
    05:00 +8°C° 0,9 mm 3 m/S 709 mmHg 94%
    06:00 +8°C° 0,9 mm 3 m/S 709 mmHg 94%
    07:00 +8°C° 0,9 mm 3 m/S 709 mmHg 94%
    08:00 +8°C° 0,7 mm 3 m/S 709 mmHg 92%
    09:00 +8°C° 0,7 mm 3 m/S 709 mmHg 90%
    10:00 +8°C° 0,7 mm 3 m/S 709 mmHg 89%
    11:00 +8°C° 0,6 mm 3 m/S 709 mmHg 87%
    12:00 +8°C° 0,6 mm 3 m/S 709 mmHg 86%
    13:00 +8°C° 0,6 mm 3 m/S 708 mmHg 84%
    14:00 +8°C° 0,7 mm 3 m/S 708 mmHg 85%
    15:00 +8°C° 0,7 mm 3 m/S 708 mmHg 86%
    16:00 +8°C° 0,7 mm 2 m/S 708 mmHg 87%
    17:00 +7°C° 0,4 mm 2 m/S 708 mmHg 88%
    18:00 +7°C° 0,4 mm 2 m/S 709 mmHg 89%
    19:00 +6°C° 0,4 mm 2 m/S 709 mmHg 90%
    20:00 +5°C° 0,4 mm 3 m/S 709 mmHg 91%
    21:00 +5°C° 0,4 mm 3 m/S 709 mmHg 92%
    22:00 +4°C° 0,4 mm 3 m/S 709 mmHg 93%
    23:00 +4°C° 0,2 mm 4 m/S 709 mmHg 93%

    23 Oktober, Montag

    Zeit Temperatur Niederschläge Wind Luftdruck Luftfeuchtigkeit
    00:00 +4°C° 0,2 mm 4 m/S 709 mmHg 93%
    01:00 +4°C° 0,2 mm 4 m/S 709 mmHg 93%
    02:00 +3°C° 0,1 mm 5 m/S 709 mmHg 93%
    03:00 +3°C° 0,1 mm 5 m/S 709 mmHg 92%
    04:00 +3°C° 0,1 mm 5 m/S 709 mmHg 92%
    05:00 +3°C° 0,3 mm 5 m/S 709 mmHg 92%
    06:00 +3°C° 0,3 mm 5 m/S 709 mmHg 92%
    07:00 +3°C° 0,3 mm 5 m/S 709 mmHg 92%
    08:00 +5°C° 0,5 mm 5 m/S 709 mmHg 92%
    09:00 +5°C° 0,5 mm 5 m/S 709 mmHg 91%
    10:00 +5°C° 0,5 mm 5 m/S 709 mmHg 91%
    11:00 +6°C° 0,4 mm 5 m/S 709 mmHg 90%
    12:00 +6°C° 0,4 mm 5 m/S 709 mmHg 89%
    13:00 +6°C° 0,4 mm 5 m/S 709 mmHg 88%
    14:00 +6°C° 0,6 mm 5 m/S 709 mmHg 90%
    15:00 +6°C° 0,6 mm 5 m/S 709 mmHg 91%
    16:00 +6°C° 0,6 mm 4 m/S 710 mmHg 92%
    17:00 +6°C° 0,6 mm 4 m/S 710 mmHg 93%
    18:00 +6°C° 0,6 mm 4 m/S 710 mmHg 93%
    19:00 +6°C° 0,6 mm 4 m/S 710 mmHg 94%
    20:00 +6°C° 1,4 mm 4 m/S 710 mmHg 94%
    21:00 +5°C° 1,4 mm 4 m/S 710 mmHg 94%
    22:00 +5°C° 1,4 mm 4 m/S 710 mmHg 95%
    23:00 +5°C° 1,3 mm 4 m/S 710 mmHg 95%

    24 Oktober, Dienstag

    Zeit Temperatur Niederschläge Wind Luftdruck Luftfeuchtigkeit
    00:00 +5°C° 1,3 mm 4 m/S 710 mmHg 95%
    01:00 +6°C° 1,3 mm 4 m/S 710 mmHg 95%
    02:00 +6°C° 1,3 mm 4 m/S 710 mmHg 95%
    03:00 +6°C° 1,3 mm 4 m/S 710 mmHg 95%
    04:00 +6°C° 1,3 mm 4 m/S 710 mmHg 95%
    05:00 +6°C° 1,5 mm 4 m/S 710 mmHg 96%
    06:00 +7°C° 1,5 mm 3 m/S 710 mmHg 96%
    07:00 +8°C° 1,5 mm 3 m/S 710 mmHg 96%
    08:00 +8°C° 1 mm 3 m/S 711 mmHg 96%
    09:00 +9°C° 1 mm 3 m/S 711 mmHg 96%
    10:00 +9°C° 1 mm 3 m/S 712 mmHg 96%
    11:00 +10°C° 0,5 mm 3 m/S 712 mmHg 95%
    12:00 +10°C° 0,5 mm 2 m/S 712 mmHg 95%
    13:00 +10°C° 0,5 mm 2 m/S 712 mmHg 95%
    14:00 +10°C° 0,2 mm 2 m/S 712 mmHg 94%
    15:00 +12°C° 0,2 mm 2 m/S 712 mmHg 94%
    16:00 +12°C° 0,2 mm 2 m/S 713 mmHg 94%
    17:00 +11°C° 0,1 mm 1 m/S 713 mmHg 94%
    18:00 +10°C° 0,1 mm 1 m/S 713 mmHg 95%
    19:00 +9°C° 0,1 mm 1 m/S 714 mmHg 95%
    20:00 +9°C° 0 mm 1 m/S 714 mmHg 95%
    21:00 +9°C° 0 mm 1 m/S 714 mmHg 95%
    22:00 +8°C° 0 mm 1 m/S 715 mmHg 95%
    23:00 +8°C° 0 mm 1 m/S 715 mmHg 95%

    25 Oktober, Mittwoch

    Zeit Temperatur Niederschläge Wind Luftdruck Luftfeuchtigkeit
    00:00 +8°C° 0 mm 1 m/S 715 mmHg 94%
    01:00 +7°C° 0 mm 1 m/S 715 mmHg 94%
    02:00 +7°C° 0 mm 1 m/S 715 mmHg 93%
    03:00 +7°C° 0 mm 1 m/S 714 mmHg 93%
    04:00 +7°C° 0 mm 1 m/S 714 mmHg 92%
    05:00 +7°C° 0 mm 1 m/S 714 mmHg 91%
    06:00 +7°C° 0 mm 1 m/S 714 mmHg 90%
    07:00 +7°C° 0 mm 1 m/S 715 mmHg 90%
    08:00 +8°C° 0 mm 1 m/S 715 mmHg 86%
    09:00 +10°C° 0 mm 1 m/S 715 mmHg 83%
    10:00 +12°C° 0 mm 1 m/S 715 mmHg 79%
    11:00 +13°C° 0 mm 1 m/S 715 mmHg 76%
    12:00 +15°C° 0 mm 1 m/S 715 mmHg 72%
    13:00 +16°C° 0 mm 2 m/S 715 mmHg 69%
    14:00 +15°C° 0 mm 2 m/S 715 mmHg 73%
    15:00 +15°C° 0 mm 2 m/S 714 mmHg 77%
    16:00 +14°C° 0 mm 2 m/S 714 mmHg 80%
    17:00 +13°C° 0 mm 2 m/S 714 mmHg 84%
    18:00 +10°C° 0 mm 2 m/S 714 mmHg 88%
    19:00 +9°C° 0 mm 2 m/S 715 mmHg 91%
    20:00 +8°C° 0 mm 2 m/S 715 mmHg 91%
    21:00 +8°C° 0 mm 2 m/S 715 mmHg 91%
    22:00 +9°C° 0 mm 1 m/S 715 mmHg 90%
    23:00 +8°C° 0 mm 1 m/S 715 mmHg 89%
    Mehr zeigen